Location: Unspecified
(0.0000°N, 0.0000°E)
Time: 02:54:14
(UTC+00:00)

deb Explorer IX - Pass Details

Date: 22 December 2018
Orbit: 536 x 1117 km, 38.8° (Epoch: 17 March)

Event Time Altitude Azimuth Distance (km) Brightness Sun altitude
Rises 09:56:40 0° 205° (SSW) 3,937 ? 52.3°
Reaches altitude 10° 10:00:18 10° 189° (S) 2,954 ? 52.9°
Maximum altitude 10:05:30 21° 143° (SE) 2,187 ? 53.9°
Drops below altitude 10° 10:10:23 10° 97° (E) 2,764 ? 54.8°
Sets 10:13:37 0° 81° (E) 3,615 ? 55.4°
